TimeIST,TemperatureF,Dew PointF,Humidity,Sea Level PressureIn,VisibilityMPH,Wind Direction,Wind SpeedMPH,Gust SpeedMPH,PrecipitationIn,Events,Conditions,WindDirDegrees,DateUTC
12:00 AM,53.6,50.0,88,30.48,6.2,NNE,4.6,-,N/A,,Mostly Cloudy,20,2013-06-26 23:00:00
12:30 AM,51.8,48.2,88,30.48,6.2,North,3.5,-,N/A,,Mostly Cloudy,350,2013-06-26 23:30:00
1:00 AM,48,47,93,30.50,19,NNW,2.2,,,,Scattered Clouds,340,2013-06-27 00:00:00
1:00 AM,48.2,46.4,93,30.48,-9999.0,NNW,2.3,-,N/A,,Clear,340,2013-06-27 00:00:00
1:30 AM,46.4,46.4,100,30.48,6.2,WNW,3.5,-,N/A,,Mostly Cloudy,300,2013-06-27 00:30:00
2:00 AM,46.4,46.4,100,30.48,6.2,WNW,4.6,-,N/A,,Mostly Cloudy,290,2013-06-27 01:00:00
2:30 AM,48.2,46.4,93,30.48,6.2,West,5.8,-,N/A,,Mostly Cloudy,280,2013-06-27 01:30:00
3:00 AM,48.2,46.4,93,30.48,6.2,West,5.8,-,N/A,,Mostly Cloudy,280,2013-06-27 02:00:00
3:30 AM,48.2,46.4,93,30.45,6.2,WNW,5.8,-,N/A,,Mostly Cloudy,290,2013-06-27 02:30:00
4:00 AM,48.2,46.4,93,30.45,-9999.0,West,6.9,-,N/A,,Clear,280,2013-06-27 03:00:00
4:30 AM,48.2,46.4,93,30.45,-9999.0,West,5.8,-,N/A,,Clear,280,2013-06-27 03:30:00
5:00 AM,50.0,46.4,87,30.45,-9999.0,WNW,4.6,-,N/A,,Clear,290,2013-06-27 04:00:00
5:30 AM,50.0,46.4,87,30.45,-9999.0,West,6.9,-,N/A,,Clear,280,2013-06-27 04:30:00
6:00 AM,50.0,48.2,94,30.42,-9999.0,West,9.2,-,N/A,,Clear,270,2013-06-27 05:00:00
6:30 AM,50.0,48.2,94,30.42,-9999.0,West,10.4,-,N/A,,Clear,280,2013-06-27 05:30:00
7:00 AM,51,48,85,30.44,12,West,11.2,,,,Overcast,270,2013-06-27 06:00:00
7:00 AM,51.8,48.2,88,30.42,-9999.0,West,10.4,-,N/A,,Clear,270,2013-06-27 06:00:00
7:30 AM,51.8,48.2,88,30.42,6.2,West,13.8,-,N/A,,Mostly Cloudy,270,2013-06-27 06:30:00
8:00 AM,51.8,48.2,88,30.42,6.2,West,16.1,-,N/A,Rain,Light Rain,260,2013-06-27 07:00:00
8:30 AM,53.6,48.2,82,30.39,6.2,West,16.1,-,N/A,,Mostly Cloudy,260,2013-06-27 07:30:00
9:00 AM,53.6,50.0,88,30.39,6.2,West,16.1,-,N/A,Rain,Light Rain,260,2013-06-27 08:00:00
9:30 AM,53.6,51.8,94,30.39,6.2,West,16.1,-,N/A,Rain,Light Rain,260,2013-06-27 08:30:00
10:00 AM,55.4,53.6,94,30.39,6.2,WSW,15.0,-,N/A,Rain,Light Rain,250,2013-06-27 09:00:00
10:30 AM,55.4,53.6,94,30.36,6.2,WSW,15.0,-,N/A,Rain,Light Rain,250,2013-06-27 09:30:00
11:00 AM,55.4,53.6,94,30.36,6.2,WSW,17.3,-,N/A,Rain,Light Rain,240,2013-06-27 10:00:00
11:30 AM,55.4,53.6,94,30.36,2.5,WSW,15.0,-,N/A,Rain,Light Rain,250,2013-06-27 10:30:00
12:00 PM,55.4,55.4,100,30.36,1.9,WSW,17.3,-,N/A,Rain,Light Rain,250,2013-06-27 11:00:00
12:30 PM,57.2,55.4,94,30.33,6.2,WSW,16.1,-,N/A,,Mostly Cloudy,250,2013-06-27 11:30:00
1:00 PM,58,56,92,30.35,10,West,20.1,,,Rain,Light Rain,260,2013-06-27 12:00:00
1:00 PM,57.2,57.2,100,30.33,6.2,West,18.4,-,N/A,,Mostly Cloudy,260,2013-06-27 12:00:00
1:30 PM,59.0,57.2,94,30.33,6.2,West,18.4,-,N/A,,Mostly Cloudy,260,2013-06-27 12:30:00
2:00 PM,59.0,57.2,94,30.33,6.2,West,17.3,-,N/A,,Mostly Cloudy,270,2013-06-27 13:00:00
2:30 PM,60.8,59.0,94,30.33,6.2,West,20.7,-,N/A,Rain,Light Rain,270,2013-06-27 13:30:00
3:00 PM,60.8,59.0,94,30.30,6.2,West,16.1,-,N/A,,Mostly Cloudy,280,2013-06-27 14:00:00
3:30 PM,60.8,59.0,94,30.30,6.2,West,15.0,-,N/A,,Mostly Cloudy,280,2013-06-27 14:30:00
4:00 PM,62.6,59.0,88,30.30,6.2,West,15.0,-,N/A,,Mostly Cloudy,280,2013-06-27 15:00:00
4:30 PM,62.6,59.0,88,30.30,6.2,WNW,13.8,-,N/A,,Mostly Cloudy,290,2013-06-27 15:30:00
5:00 PM,62.6,59.0,88,30.27,6.2,WNW,13.8,-,N/A,,Mostly Cloudy,290,2013-06-27 16:00:00
5:30 PM,62.6,59.0,88,30.27,6.2,WNW,13.8,-,N/A,,Mostly Cloudy,300,2013-06-27 16:30:00
6:00 PM,62.6,60.8,94,30.27,6.2,WNW,12.7,-,N/A,Rain,Light Rain,300,2013-06-27 17:00:00
6:30 PM,62.6,60.8,94,30.27,6.2,WNW,10.4,-,N/A,,Mostly Cloudy,300,2013-06-27 17:30:00
7:00 PM,63,60,88,30.27,11,NW,8.9,,,Rain,Light Rain,320,2013-06-27 18:00:00
7:00 PM,62.6,60.8,94,30.27,6.2,NW,9.2,-,N/A,,Mostly Cloudy,310,2013-06-27 18:00:00
7:30 PM,62.6,60.8,94,30.27,6.2,WNW,12.7,-,N/A,,Mostly Cloudy,300,2013-06-27 18:30:00
8:00 PM,62.6,60.8,94,30.24,6.2,WNW,15.0,-,N/A,,Mostly Cloudy,290,2013-06-27 19:00:00
8:30 PM,62.6,59.0,88,30.24,6.2,WNW,15.0,-,N/A,,Mostly Cloudy,290,2013-06-27 19:30:00
9:00 PM,62.6,59.0,88,30.24,6.2,WNW,16.1,-,N/A,,Mostly Cloudy,290,2013-06-27 20:00:00
9:30 PM,60.8,59.0,94,30.24,6.2,WNW,12.7,-,N/A,,Mostly Cloudy,300,2013-06-27 20:30:00
10:00 PM,60.8,59.0,94,30.24,6.2,WNW,18.4,-,N/A,,Mostly Cloudy,290,2013-06-27 21:00:00
10:30 PM,60.8,57.2,88,30.24,6.2,WNW,18.4,-,N/A,Rain,Light Rain,290,2013-06-27 21:30:00
11:00 PM,60.8,59.0,94,30.24,6.2,West,17.3,-,N/A,,Mostly Cloudy,280,2013-06-27 22:00:00
11:30 PM,60.8,59.0,94,30.24,6.2,West,19.6,-,N/A,,Mostly Cloudy,280,2013-06-27 22:30:00